High Rock Lake Weather Center

Moon Phase Calendar



High Rock Lake Water Level
Online Cameras

 


      

Current Conditions in Southmont
2/29/2024 8:11:48 PM

43°F
Feels Like 43
Clear
Humidity
52%
Pressure
30.39"
Wind
0
Dew Point
28°F
UV Index
0/10 (Low)
Visibility
6 mi

Hourly Forecast

Date & Time Thu, Feb 29
8:00 PM
Thu, Feb 29
9:00 PM
Thu, Feb 29
10:00 PM
Thu, Feb 29
11:00 PM
Fri, Mar 1
12:00 AM
Fri, Mar 1
1:00 AM
Fri, Mar 1
2:00 AM
Fri, Mar 1
3:00 AM
Fri, Mar 1
4:00 AM
Fri, Mar 1
5:00 AM
Fri, Mar 1
6:00 AM
Fri, Mar 1
7:00 AM
Fri, Mar 1
8:00 AM
Fri, Mar 1
9:00 AM
Fri, Mar 1
10:00 AM
Fri, Mar 1
11:00 AM
Fri, Mar 1
12:00 PM
Fri, Mar 1
1:00 PM
Fri, Mar 1
2:00 PM
Fri, Mar 1
3:00 PM
Fri, Mar 1
4:00 PM
Fri, Mar 1
5:00 PM
Fri, Mar 1
6:00 PM
Fri, Mar 1
7:00 PM
Fri, Mar 1
8:00 PM
Fri, Mar 1
9:00 PM
Fri, Mar 1
10:00 PM
Fri, Mar 1
11:00 PM
Sat, Mar 2
12:00 AM
Sat, Mar 2
1:00 AM
Sat, Mar 2
2:00 AM
Sat, Mar 2
3:00 AM
Sat, Mar 2
4:00 AM
Sat, Mar 2
5:00 AM
Sat, Mar 2
6:00 AM
Sat, Mar 2
7:00 AM
Sat, Mar 2
8:00 AM
Sat, Mar 2
9:00 AM
Sat, Mar 2
10:00 AM
Sat, Mar 2
11:00 AM
Sat, Mar 2
12:00 PM
Sat, Mar 2
1:00 PM
Sat, Mar 2
2:00 PM
Sat, Mar 2
3:00 PM
Sat, Mar 2
4:00 PM
Sat, Mar 2
5:00 PM
Sat, Mar 2
6:00 PM
Sat, Mar 2
7:00 PM
Condition
Clear

Clouds

Clouds

Clouds

Clouds

Clouds

Clouds

Clouds

Clouds

Clouds

Clouds

Clouds

Clouds

Clouds

Clouds

Clouds

Rain

Rain

Rain

Rain

Rain

Rain

Rain

Rain

Rain

Rain

Rain

Rain

Rain

Rain

Rain

Clouds

Rain

Clouds

Clouds

Clouds

Clouds

Clouds

Clouds

Clouds

Clouds

Clouds

Clouds

Clouds

Clouds

Clouds

Clouds

Clouds
Temperature 43°F43°F43°F42°F41°F39°F38°F39°F38°F38°F37°F37°F40°F43°F46°F49°F49°F45°F44°F44°F43°F43°F43°F44°F45°F45°F46°F46°F45°F45°F45°F44°F44°F44°F44°F44°F46°F48°F52°F55°F58°F61°F63°F63°F63°F62°F57°F54°F
Feels Like 43°F43°F41°F40°F38°F39°F38°F36°F36°F34°F33°F33°F37°F40°F44°F47°F48°F43°F42°F40°F38°F39°F39°F41°F40°F42°F42°F43°F42°F41°F41°F40°F39°F39°F41°F41°F42°F44°F51°F54°F57°F60°F62°F63°F63°F62°F56°F54°F
Cloudiness 0%20%40%60%80%100%100%100%100%100%100%100%100%100%100%100%100%100%100%100%100%100%100%100%100%100%100%100%100%100%100%100%100%100%100%100%100%100%94%91%88%83%47%41%36%33%29%24%
Visibility 6 mi6 mi6 mi6 mi6 mi6 mi6 mi6 mi6 mi6 mi6 mi6 mi6 mi6 mi6 mi6 mi6 mi6 mi6 mi6 mi4 mi4 mi4 mi6 mi5 mi3 mi2 mi2 mi0 mi1 mi2 mi4 mi6 mi6 mi6 mi6 mi6 mi6 mi6 mi6 mi6 mi6 mi6 mi6 mi6 mi6 mi6 mi6 mi
Precipitation 0%0%0%0%0%0%0%0%0%0%0%0%0%0%5%7%22%50%91%100%100%100%100%100%92%100%100%100%100%100%75%75%61%55%49%40%0%0%0%0%0%0%0%0%0%0%0%0%
Humidity 52%53%54%55%56%58%59%59%60%61%65%67%64%56%51%48%55%77%86%91%95%96%97%97%98%98%99%99%99%98%98%98%98%97%97%96%94%91%85%81%76%70%67%65%66%70%81%86%
Dew Point 28°F28°F28°F27°F27°F26°F25°F25°F26°F26°F26°F27°F28°F28°F29°F30°F33°F39°F40°F41°F41°F42°F43°F43°F44°F45°F45°F45°F45°F45°F44°F44°F43°F43°F43°F43°F44°F45°F48°F49°F50°F51°F51°F52°F52°F53°F51°F50°F
Pressure 30.39"30.42"30.45"30.45"30.45"30.47"30.5"30.47"30.5"30.5"30.5"30.5"30.53"30.53"30.53"30.5"30.5"30.47"30.47"30.45"30.42"30.39"30.39"30.39"30.36"30.36"30.33"30.3"30.27"30.27"30.24"30.24"30.24"30.24"30.21"30.24"30.27"30.24"30.27"30.24"30.21"30.18"30.18"30.15"30.15"30.15"30.18"30.21"
Wind Speed 2.6 mph2.9 mph3.2 mph3.3 mph3.6 mph2.6 mph1.2 mph3.8 mph3.3 mph4.6 mph4.8 mph4.6 mph3.5 mph5.1 mph4.7 mph5.9 mph4 mph4.7 mph5 mph6.6 mph8.4 mph7.4 mph6.5 mph5.6 mph8.4 mph5.7 mph6.2 mph6.2 mph6.5 mph7.4 mph7.1 mph8.1 mph8.1 mph7.8 mph5.9 mph5.6 mph6.4 mph7 mph6.2 mph6.3 mph5 mph4.3 mph4 mph3.9 mph3.7 mph2.9 mph2.3 mph1.7 mph
Wind
Direction
158°
SSE
149°
SSE
152°
SSE
128°
SE
128°
SE
137°
SE
120°
ESE
88°
E
105°
ESE
85°
E
95°
E
95°
E
83°
E
88°
E
90°
E
91°
E
89°
E
99°
E
88°
E
77°
ENE
62°
ENE
52°
NE
47°
NE
55°
NE
61°
ENE
55°
NE
48°
NE
31°
NNE
23°
NNE

N

N
350°
N

N
360°
N
20°
NNE
352°
N
360°
N
29°
NNE
17°
NNE
13°
NNE
17°
NNE

N

N
15°
NNE
14°
NNE
27°
NNE
50°
NE
75°
ENE

Daily Forecast

Date High Low Precip. Humidity
Today
Feb 29

Clouds
50 °F
35 °F
6%
31%
Friday
Mar 1

Rain
49 °F
37 °F
100%
55%
Saturday
Mar 2

Rain
63 °F
44 °F
100%
76%
Sunday
Mar 3

Clouds
66 °F
49 °F
0%
72%
Monday
Mar 4

Clouds
68 °F
51 °F
0%
52%
Tuesday
Mar 5

Clouds
67 °F
48 °F
0%
54%
Wednesday
Mar 6

Rain
70 °F
60 °F
100%
63%
Thursday
Mar 7

Rain
58 °F
51 °F
71%
91%
Friday
Mar 8

Rain
48 °F
45 °F
100%
97%
Saturday
Mar 9

Rain
61 °F
42 °F
100%
79%
Sunday
Mar 10

Rain
62 °F
40 °F
30%
46%
Monday
Mar 11

Clear
57 °F
41 °F
2%
38%
Tuesday
Mar 12

Clouds
53 °F
38 °F
0%
47%
Wednesday
Mar 13

Clouds
55 °F
35 °F
0%
49%
Thursday
Mar 14

Clouds
65 °F
42 °F
0%
51%
Friday
Mar 15

Clouds
70 °F
49 °F
0%
52%

Temperature 8-14 Day Outlook



Precipitation 8-14 Day Outlook




Quick Links
High Rock Lake News
High Rock Lake Photos
High Rock Lake Videos




About Us
Contact Us
Site Map
Search Site
Advertise With Us
   
HighRock.USLakes.info
THE HIGH ROCK LAKE WEBSITE

Copyright 2024, Lakes Online
Privacy    |    Legal